This is the latest recevied weather packets stored in our database for station/object EA3ABN-15. If no packets are shown the sender has not sent any weather packets the latest 10 day(s).
| Time | Temp. | Humidity | Pressure | Rain* | Wind** | Luminosity | Snow |
|---|---|---|---|---|---|---|---|
| 1777668719 | 16.67° C | 58% | 1064.8 hPa | - | - | - | - |
| 1777667819 | 16.67° C | 59% | 1064.6 hPa | - | - | - | - |
| 1777666919 | 16.67° C | 59% | 1064.7 hPa | - | - | - | - |
| 1777666019 | 16.67° C | 60% | 1064.5 hPa | - | - | - | - |
| 1777665119 | 16.67° C | 62% | 1064.3 hPa | - | - | - | - |
| 1777664219 | 16.11° C | 62% | 1064.2 hPa | - | - | - | - |
| 1777663319 | 16.11° C | 61% | 1064 hPa | - | - | - | - |
| 1777662419 | 16.67° C | 60% | 1063.8 hPa | - | - | - | - |
| 1777661519 | 16.67° C | 58% | 1063.6 hPa | - | - | - | - |
| 1777660619 | 17.22° C | 57% | 1063.4 hPa | - | - | - | - |
| 1777659718 | 17.22° C | 55% | 1063 hPa | - | - | - | - |
| 1777658817 | 17.78° C | 53% | 1062.7 hPa | - | - | - | - |
| 1777657917 | 18.33° C | 51% | 1062.6 hPa | - | - | - | - |
| 1777657017 | 18.33° C | 49% | 1062.5 hPa | - | - | - | - |
| 1777656117 | 18.89° C | 48% | 1062.4 hPa | - | - | - | - |
| 1777655216 | 18.89° C | 48% | 1062.5 hPa | - | - | - | - |
| 1777654316 | 18.89° C | 48% | 1062.4 hPa | - | - | - | - |
| 1777653416 | 18.89° C | 48% | 1062.3 hPa | - | - | - | - |
| 1777652516 | 19.44° C | 47% | 1062.3 hPa | - | - | - | - |
| 1777651616 | 19.44° C | 47% | 1062.2 hPa | - | - | - | - |
| 1777650716 | 19.44° C | 47% | 1062.2 hPa | - | - | - | - |
| 1777649816 | 20° C | 47% | 1062.2 hPa | - | - | - | - |
| 1777648916 | 20° C | 46% | 1062.1 hPa | - | - | - | - |
| 1777648018 | 20° C | 46% | 1062.1 hPa | - | - | - | - |
| 1777647118 | 20° C | 46% | 1062.2 hPa | - | - | - | - |
* Rain since midnight (hover to see other rain measurements)
** Current wind speed in m/s (hover to see current wind gust speed)